STARLINK-3326 (50844 NORAD) Tracking and Keplerian Element Data

This shows tracking and keplerian element data for the satellite.

Feedback or suggestion? Click here.




ElementValue
Catalog50844
NameSTARLINK-3326
Epoch Orbit383
Epoch Day22.91667824
Epoch Year2022
RAAN119.7413
Inclination53.2175
Eccentricity0.000108
Argument of Perigee62.435
Mean Anonmoly261.8849
Mean Motion15.75449343
Decay Rate-0.00821408
L11 50844U 22001AT 22022.91667824 -.00821408 00000+0 -58423-2 0 9995
L22 50844 53.2175 119.7413 0001080 62.4350 261.8849 15.75449343 3838

Live tracking and technical data element details for STARLINK-3326 (NORAD 50844). STARLINK-3326 can be tracked NOW for your location showing map with azimuth and elevation plus other details from your city location.

Track the satellite on the map from your city or location and see movement details for azimuth, elevation, latitude, longitude, range, height, and movement on the map or in text.







IsCatalogInMostPopularTable: catalog: 50844, numindb: 3
Update: records affected: 1



GetName: 50844 STARLINK-3326

Hit Count: updated at: Mon, 24 Jan 2022 00:54:40 GMT